Regional Weather Roundup
Issued by NWS Midland/Odessa, TX

Skip options and go directly to product.
Home | Oldest Version | Next Version | Current Version | All | Text Only | Save Text | Print | Product List | Glossary On

Skip product version selection by date and time.   
818
ASUS44 KMAF 291701
RWRMAF
MIDLAND AREA WEATHER ROUNDUP
NATIONAL WEATHER SERVICE MIDLAND TX
1200 PM CDT WED JUL 29 2015

...IN SOUTHWEST TEXAS AND SOUTHEAST NEW MEXICO...

CITY           SKY/WX    TMP DP  RH WIND       PRES   REMARKS
ALPINE         MOSUNNY   79  63  58 CALM      30.28S
ANDREWS        FAIR      88  62  40 E6        30.17S
ARTESIA        SUNNY     84  63  48 NE10      30.21S
BIG SPRING     SUNNY     85  61  43 SW3       30.15S
CARLSBAD       SUNNY     88  63  43 N14       30.17S
DRYDEN           N/A     89  70  53 VRB6      30.08R
FORT STOCKTON  SUNNY     87  64  46 SE3       30.13R
GUAD PASS      SUNNY     76  61  59 NE22G29   30.30S
HOBBS          SUNNY     84  61  45 N12       30.20S
MARFA          PTSUNNY   79  63  57 E12       30.25S
MIDLAND AIRPK  SUNNY     89  61  38 S3        30.14S
MIDLAND INTL   SUNNY     88  62  41 CALM      30.14R
ODESSA         SUNNY     89  60  37 MISG      30.15R
PECOS          SUNNY     88  60  38 NE6       30.10F
PRESIDIO       FAIR      91  59  33 NE6       30.08S
SEMINOLE       SUNNY     86  61  42 NE7       30.19S
SNYDER         PTSUNNY   86  67  52 NW6       30.14R
WINK           SUNNY     92  62  36 E10       30.10F
$$
...OTHER STATIONS IN TEXAS...

CITY           SKY/WX    TMP DP  RH WIND       PRES   REMARKS
ABILENE        MOSUNNY   92  69  47 VRB3      30.10S
AMARILLO       SUNNY     77  64  64 N9        30.25S
AUSTIN         MOSUNNY   89  71  55 S7        30.06S
BROWNSVILLE    PTSUNNY   91  75  59 SE15      30.03R HX 101
CORPUS CHRISTI MOSUNNY   94  77  57 SE12G21   30.03R HX 108
DALLAS FTW     MOSUNNY   93  71  48 VRB3      30.05S HX 100
DEL RIO        SUNNY     90  72  55 SE10      30.03S
EL PASO        MOSUNNY   82  61  48 N5        30.18R
HOUSTON INT    MOSUNNY   93  71  48 CALM      30.06S HX 100
LUBBOCK        MOSUNNY   85  65  51 NE7       30.19S
SAN ANGELO     SUNNY     92  69  47 NE3       30.09S
SAN ANTONIO    MOSUNNY   89  72  56 S10       30.07F
WACO           SUNNY     92  70  48 S12       30.05F
WICHITA FALLS  NOT AVBL
$$
...OTHER LOCATIONS IN NEW MEXICO...

CITY           SKY/WX    TMP DP  RH WIND       PRES   REMARKS
ALAMAGORDO     MOSUNNY   81  59  47 N6        30.21F
ALBUQUERQUE    CLOUDY    78  57  48 N9G17     30.31F
CANNON AFB     NOT AVBL
CLOVIS         MOSUNNY   79  66  65 E12       30.29R
HOLLOMAN AFB   NOT AVBL
ROSWELL        SUNNY     86  60  41 NE6       30.21S
RUIDOSO          N/A    N/A N/A N/A MISG        N/A
SANTA FE       CLOUDY    71  51  49 S3        30.37S
TRUTH OR CONSE PTSUNNY   75  63  66 CALM      30.24F
TUCUMCARI      CLOUDY    75  64  68 E12       30.27S
$$

USA.gov is the U.S. government's official web portal to all federal, state and local government web resources and services.